Time,TemperatureF,DewpointF,PressureIn,WindDirection,WindDirectionDegrees,WindSpeedMPH,WindSpeedGustMPH,Humidity,HourlyPrecipIn,Conditions,Clouds,dailyrainin,SolarRadiationWatts/m^2,SoftwareType,DateUTC
2013-04-23 00:01:00,58.3,41.2,30.11,ESE,119,0.0,2.0,53,0.00,,,0.00,0,WeatherCatV1.12B45,2013-04-23 04:01:00,
2013-04-23 00:06:00,58.1,41.5,30.11,ESE,119,0.0,1.0,54,0.00,,,0.00,0,WeatherCatV1.12B45,2013-04-23 04:06:00,
2013-04-23 00:11:00,58.0,41.4,30.11,ESE,119,0.0,1.0,54,0.00,,,0.00,0,WeatherCatV1.12B45,2013-04-23 04:11:00,
2013-04-23 00:16:00,57.8,41.3,30.11,ESE,119,0.0,2.0,54,0.00,,,0.00,0,WeatherCatV1.12B45,2013-04-23 04:16:00,
2013-04-23 00:21:00,57.7,41.2,30.11,ESE,119,0.0,2.0,54,0.00,,,0.00,0,WeatherCatV1.12B45,2013-04-23 04:21:00,
2013-04-23 00:26:00,57.6,41.1,30.11,SE,131,0.0,2.0,54,0.00,,,0.00,0,WeatherCatV1.12B45,2013-04-23 04:26:00,
2013-04-23 00:31:00,57.6,41.1,30.11,SE,139,1.0,4.0,54,0.00,,,0.00,0,WeatherCatV1.12B45,2013-04-23 04:31:00,
2013-04-23 00:36:00,57.6,41.6,30.11,SE,139,2.0,4.0,55,0.00,,,0.00,0,WeatherCatV1.12B45,2013-04-23 04:36:00,
2013-04-23 00:41:00,57.5,41.0,30.11,SE,142,1.0,4.0,54,0.00,,,0.00,0,WeatherCatV1.12B45,2013-04-23 04:41:00,
2013-04-23 00:46:00,57.5,41.0,30.11,SE,128,2.0,4.0,54,0.00,,,0.00,0,WeatherCatV1.12B45,2013-04-23 04:46:00,
2013-04-23 00:51:00,57.5,41.0,30.10,ESE,117,1.0,2.0,54,0.00,,,0.00,0,WeatherCatV1.12B45,2013-04-23 04:51:00,
2013-04-23 00:56:00,57.5,41.0,30.10,SE,125,1.0,2.0,54,0.00,,,0.00,0,WeatherCatV1.12B45,2013-04-23 04:56:00,
2013-04-23 01:01:00,57.5,41.0,30.10,SE,131,1.0,4.0,54,0.00,,,0.00,0,WeatherCatV1.12B45,2013-04-23 05:01:00,
2013-04-23 01:06:00,57.5,41.0,30.10,SSE,152,1.0,2.0,54,0.00,,,0.00,0,WeatherCatV1.12B45,2013-04-23 05:06:00,
2013-04-23 01:11:00,57.4,40.9,30.10,SE,146,2.0,4.0,54,0.00,,,0.00,0,WeatherCatV1.12B45,2013-04-23 05:11:00,
2013-04-23 01:16:00,57.3,41.3,30.10,SSE,151,0.0,2.0,55,0.00,,,0.00,0,WeatherCatV1.12B45,2013-04-23 05:16:00,
2013-04-23 01:21:00,57.2,41.2,30.10,ESE,122,2.0,4.0,55,0.00,,,0.00,0,WeatherCatV1.12B45,2013-04-23 05:21:00,
2013-04-23 01:26:00,57.2,41.2,30.10,SE,128,2.0,4.0,55,0.00,,,0.00,0,WeatherCatV1.12B45,2013-04-23 05:26:00,
2013-04-23 01:31:00,57.2,40.7,30.10,SSE,161,2.0,2.0,54,0.00,,,0.00,0,WeatherCatV1.12B45,2013-04-23 05:31:00,
2013-04-23 01:36:00,57.2,40.7,30.10,SE,129,5.0,5.0,54,0.00,,,0.00,0,WeatherCatV1.12B45,2013-04-23 05:36:00,
2013-04-23 01:41:00,57.1,40.6,30.10,SE,143,1.0,5.0,54,0.00,,,0.00,0,WeatherCatV1.12B45,2013-04-23 05:41:00,
2013-04-23 01:46:00,57.1,40.6,30.10,ESE,120,1.0,1.0,54,0.00,,,0.00,0,WeatherCatV1.12B45,2013-04-23 05:46:00,
2013-04-23 01:51:00,57.1,40.6,30.10,SE,133,2.0,2.0,54,0.00,,,0.00,0,WeatherCatV1.12B45,2013-04-23 05:51:00,
2013-04-23 01:56:00,57.1,40.6,30.10,SE,128,0.0,2.0,54,0.00,,,0.00,0,WeatherCatV1.12B45,2013-04-23 05:56:00,
2013-04-23 02:01:00,57.1,40.6,30.10,ESE,123,2.0,2.0,54,0.00,,,0.00,0,WeatherCatV1.12B45,2013-04-23 06:01:00,
2013-04-23 02:04:00,57.1,40.6,30.10,ESE,114,4.0,5.0,54,0.00,,,0.00,0,WeatherCatV1.12B45,2013-04-23 06:04:00,
2013-04-23 02:07:00,57.0,41.0,30.10,ESE,102,1.0,4.0,55,0.00,,,0.00,0,WeatherCatV1.12B45,2013-04-23 06:07:00,
2013-04-23 02:08:00,57.0,41.0,30.10,SE,131,4.0,4.0,55,0.00,,,0.00,0,WeatherCatV1.12B45,2013-04-23 06:08:00,
2013-04-23 02:13:00,56.8,40.8,30.10,ESE,115,1.0,4.0,55,0.00,,,0.00,0,WeatherCatV1.12B45,2013-04-23 06:13:00,
2013-04-23 02:15:00,56.8,40.8,30.10,ESE,117,1.0,4.0,55,0.00,,,0.00,0,WeatherCatV1.12B45,2013-04-23 06:15:00,
2013-04-23 02:20:00,56.5,41.0,30.09,ESE,119,1.0,4.0,56,0.00,,,0.00,0,WeatherCatV1.12B45,2013-04-23 06:20:00,
2013-04-23 02:26:00,56.3,40.8,30.09,ESE,107,1.0,4.0,56,0.00,,,0.00,0,WeatherCatV1.12B45,2013-04-23 06:26:00,
2013-04-23 02:31:00,56.1,40.6,30.09,ESE,120,2.0,4.0,56,0.00,,,0.00,0,WeatherCatV1.12B45,2013-04-23 06:31:00,
2013-04-23 02:36:00,56.0,40.5,30.09,SE,128,2.0,4.0,56,0.00,,,0.00,0,WeatherCatV1.12B45,2013-04-23 06:36:00,
2013-04-23 02:41:00,55.9,40.4,30.09,SE,127,2.0,5.0,56,0.00,,,0.00,0,WeatherCatV1.12B45,2013-04-23 06:41:00,
2013-04-23 02:46:00,55.8,40.8,30.09,ESE,122,2.0,5.0,57,0.00,,,0.00,0,WeatherCatV1.12B45,2013-04-23 06:46:00,
2013-04-23 02:51:00,55.7,40.7,30.08,SE,132,2.0,4.0,57,0.00,,,0.00,0,WeatherCatV1.12B45,2013-04-23 06:51:00,
2013-04-23 02:56:00,55.5,40.5,30.08,SE,129,4.0,4.0,57,0.00,,,0.00,0,WeatherCatV1.12B45,2013-04-23 06:56:00,
2013-04-23 03:01:00,55.4,40.4,30.08,SE,129,1.0,5.0,57,0.00,,,0.00,0,WeatherCatV1.12B45,2013-04-23 07:01:00,
2013-04-23 03:06:00,55.3,40.3,30.08,SE,134,1.0,6.0,57,0.00,,,0.00,0,WeatherCatV1.12B45,2013-04-23 07:06:00,
2013-04-23 03:11:00,55.2,40.7,30.08,SE,125,1.0,6.0,58,0.00,,,0.00,0,WeatherCatV1.12B45,2013-04-23 07:11:00,
2013-04-23 03:16:00,55.1,40.6,30.08,SE,133,2.0,5.0,58,0.00,,,0.00,0,WeatherCatV1.12B45,2013-04-23 07:16:00,
2013-04-23 03:21:00,55.0,40.5,30.08,SE,129,4.0,6.0,58,0.00,,,0.00,0,WeatherCatV1.12B45,2013-04-23 07:21:00,
2013-04-23 03:26:00,54.8,40.3,30.08,SE,125,4.0,4.0,58,0.00,,,0.00,0,WeatherCatV1.12B45,2013-04-23 07:26:00,
2013-04-23 03:31:00,54.7,40.7,30.08,SE,125,2.0,5.0,59,0.00,,,0.00,0,WeatherCatV1.12B45,2013-04-23 07:31:00,
2013-04-23 03:36:00,54.6,40.6,30.08,ESE,120,1.0,5.0,59,0.00,,,0.00,0,WeatherCatV1.12B45,2013-04-23 07:36:00,
2013-04-23 03:41:00,54.5,40.5,30.08,SE,133,0.0,4.0,59,0.00,,,0.00,0,WeatherCatV1.12B45,2013-04-23 07:41:00,
2013-04-23 03:46:00,54.4,40.4,30.08,SE,131,2.0,5.0,59,0.00,,,0.00,0,WeatherCatV1.12B45,2013-04-23 07:46:00,
2013-04-23 03:51:00,54.3,40.3,30.08,SE,128,1.0,5.0,59,0.00,,,0.00,0,WeatherCatV1.12B45,2013-04-23 07:51:00,
2013-04-23 03:56:00,54.3,40.3,30.08,SE,131,2.0,4.0,59,0.00,,,0.00,0,WeatherCatV1.12B45,2013-04-23 07:56:00,
2013-04-23 04:01:00,54.2,40.6,30.08,SE,129,2.0,5.0,60,0.00,,,0.00,0,WeatherCatV1.12B45,2013-04-23 08:01:00,
2013-04-23 04:06:00,54.0,40.0,30.08,ESE,123,4.0,4.0,59,0.00,,,0.00,0,WeatherCatV1.12B45,2013-04-23 08:06:00,
2013-04-23 04:11:00,54.0,40.4,30.07,SE,125,4.0,5.0,60,0.00,,,0.00,0,WeatherCatV1.12B45,2013-04-23 08:11:00,
2013-04-23 04:16:00,54.0,40.4,30.07,SE,131,2.0,5.0,60,0.00,,,0.00,0,WeatherCatV1.12B45,2013-04-23 08:16:00,
2013-04-23 04:21:00,53.9,40.3,30.07,SE,131,4.0,6.0,60,0.00,,,0.00,0,WeatherCatV1.12B45,2013-04-23 08:21:00,
2013-04-23 04:26:00,53.8,40.2,30.07,SE,124,2.0,2.0,60,0.00,,,0.00,0,WeatherCatV1.12B45,2013-04-23 08:26:00,
2013-04-23 04:31:00,53.7,40.6,30.07,ESE,102,2.0,5.0,61,0.00,,,0.00,0,WeatherCatV1.12B45,2013-04-23 08:31:00,
2013-04-23 04:36:00,53.6,40.1,30.07,SE,129,1.0,4.0,60,0.00,,,0.00,0,WeatherCatV1.12B45,2013-04-23 08:36:00,
2013-04-23 04:41:00,53.5,40.4,30.07,SE,126,2.0,4.0,61,0.00,,,0.00,0,WeatherCatV1.12B45,2013-04-23 08:41:00,
2013-04-23 04:46:00,53.5,40.4,30.07,SE,127,4.0,5.0,61,0.00,,,0.00,0,WeatherCatV1.12B45,2013-04-23 08:46:00,
2013-04-23 04:51:00,53.5,40.4,30.06,ESE,123,1.0,5.0,61,0.00,,,0.00,0,WeatherCatV1.12B45,2013-04-23 08:51:00,
2013-04-23 04:56:00,53.5,40.4,30.06,SE,131,0.0,4.0,61,0.00,,,0.00,0,WeatherCatV1.12B45,2013-04-23 08:56:00,
2013-04-23 05:01:00,53.4,40.3,30.06,ESE,115,2.0,4.0,61,0.00,,,0.00,0,WeatherCatV1.12B45,2013-04-23 09:01:00,
2013-04-23 05:06:00,53.5,40.0,30.05,ESE,111,0.0,4.0,60,0.00,,,0.00,0,WeatherCatV1.12B45,2013-04-23 09:06:00,
2013-04-23 05:11:00,53.5,40.0,30.05,East,97,4.0,4.0,60,0.00,,,0.00,0,WeatherCatV1.12B45,2013-04-23 09:11:00,
2013-04-23 05:16:00,53.6,40.5,30.05,SE,129,2.0,5.0,61,0.00,,,0.00,0,WeatherCatV1.12B45,2013-04-23 09:16:00,
2013-04-23 05:21:00,53.4,40.3,30.04,ESE,112,2.0,4.0,61,0.00,,,0.00,0,WeatherCatV1.12B45,2013-04-23 09:21:00,
2013-04-23 05:26:00,53.3,40.2,30.05,ESE,116,4.0,5.0,61,0.00,,,0.00,0,WeatherCatV1.12B45,2013-04-23 09:26:00,
2013-04-23 05:31:00,53.0,40.3,30.05,East,87,1.0,5.0,62,0.00,,,0.00,0,WeatherCatV1.12B45,2013-04-23 09:31:00,
2013-04-23 05:36:00,52.8,40.1,30.05,ESE,112,1.0,2.0,62,0.00,,,0.00,0,WeatherCatV1.12B45,2013-04-23 09:36:00,
2013-04-23 05:41:00,52.4,40.2,30.04,SE,125,1.0,5.0,63,0.00,,,0.00,0,WeatherCatV1.12B45,2013-04-23 09:41:00,
2013-04-23 05:46:00,52.3,40.1,30.04,ESE,115,4.0,5.0,63,0.00,,,0.00,0,WeatherCatV1.12B45,2013-04-23 09:46:00,
2013-04-23 05:51:00,52.3,40.1,30.04,ESE,115,1.0,4.0,63,0.00,,,0.00,0,WeatherCatV1.12B45,2013-04-23 09:51:00,
2013-04-23 05:56:00,52.1,40.3,30.04,ESE,115,0.0,5.0,64,0.00,,,0.00,0,WeatherCatV1.12B45,2013-04-23 09:56:00,
2013-04-23 06:01:00,51.9,40.1,30.04,ESE,118,1.0,5.0,64,0.00,,,0.00,0,WeatherCatV1.12B45,2013-04-23 10:01:00,
2013-04-23 06:06:00,51.2,39.8,30.04,SE,142,2.0,4.0,65,0.00,,,0.00,0,WeatherCatV1.12B45,2013-04-23 10:06:00,
2013-04-23 06:11:00,51.1,40.1,30.05,SE,129,1.0,4.0,66,0.00,,,0.00,0,WeatherCatV1.12B45,2013-04-23 10:11:00,
2013-04-23 06:16:00,51.2,39.8,30.05,SE,130,4.0,4.0,65,0.00,,,0.00,0,WeatherCatV1.12B45,2013-04-23 10:16:00,
2013-04-23 06:21:00,51.2,39.8,30.06,SE,141,1.0,5.0,65,0.00,,,0.00,0,WeatherCatV1.12B45,2013-04-23 10:21:00,
2013-04-23 06:26:00,51.2,39.8,30.06,SE,142,0.0,4.0,65,0.00,,,0.00,0,WeatherCatV1.12B45,2013-04-23 10:26:00,
2013-04-23 06:31:00,51.0,40.0,30.07,SSE,150,1.0,2.0,66,0.00,,,0.00,0,WeatherCatV1.12B45,2013-04-23 10:31:00,
2013-04-23 06:36:00,51.0,40.0,30.07,SE,142,1.0,5.0,66,0.00,,,0.00,0,WeatherCatV1.12B45,2013-04-23 10:36:00,
2013-04-23 06:41:00,50.9,40.0,30.06,SSE,154,2.0,4.0,66,0.00,,,0.00,0,WeatherCatV1.12B45,2013-04-23 10:41:00,
2013-04-23 06:46:00,50.8,39.9,30.07,SE,133,2.0,4.0,66,0.00,,,0.00,0,WeatherCatV1.12B45,2013-04-23 10:46:00,
2013-04-23 06:51:00,50.7,39.8,30.06,SSE,149,2.0,4.0,66,0.00,,,0.00,0,WeatherCatV1.12B45,2013-04-23 10:51:00,
2013-04-23 06:56:00,50.6,40.1,30.07,SSE,151,1.0,4.0,67,0.00,,,0.00,7,WeatherCatV1.12B45,2013-04-23 10:56:00,
2013-04-23 07:01:00,50.6,40.1,30.06,SSE,160,1.0,2.0,67,0.00,,,0.00,9,WeatherCatV1.12B45,2013-04-23 11:01:00,
2013-04-23 07:06:00,50.5,40.0,30.06,SSE,155,2.0,6.0,67,0.00,,,0.00,12,WeatherCatV1.12B45,2013-04-23 11:06:00,
2013-04-23 07:11:00,50.6,40.1,30.06,SE,136,2.0,4.0,67,0.00,,,0.00,18,WeatherCatV1.12B45,2013-04-23 11:11:00,
2013-04-23 07:16:00,50.6,40.1,30.06,South,170,2.0,5.0,67,0.00,,,0.00,25,WeatherCatV1.12B45,2013-04-23 11:16:00,
2013-04-23 07:21:00,50.6,40.1,30.05,ESE,109,4.0,7.0,67,0.00,,,0.00,30,WeatherCatV1.12B45,2013-04-23 11:21:00,
2013-04-23 07:26:00,50.8,40.2,30.05,SE,142,9.0,9.0,67,0.00,,,0.00,33,WeatherCatV1.12B45,2013-04-23 11:26:00,
2013-04-23 07:31:00,50.9,40.3,30.05,South,173,2.0,7.0,67,0.00,,,0.00,46,WeatherCatV1.12B45,2013-04-23 11:31:00,
2013-04-23 07:36:00,51.0,40.4,30.04,SE,143,1.0,6.0,67,0.00,,,0.00,58,WeatherCatV1.12B45,2013-04-23 11:36:00,
2013-04-23 07:41:00,51.1,40.9,30.04,SE,140,4.0,6.0,68,0.00,,,0.00,62,WeatherCatV1.12B45,2013-04-23 11:41:00,
2013-04-23 07:46:00,51.2,41.0,30.05,SE,144,4.0,5.0,68,0.00,,,0.00,90,WeatherCatV1.12B45,2013-04-23 11:46:00,
2013-04-23 07:51:00,51.4,41.2,30.05,SE,127,1.0,5.0,68,0.00,,,0.00,86,WeatherCatV1.12B45,2013-04-23 11:51:00,
2013-04-23 07:56:00,51.5,41.3,30.05,SSE,156,4.0,5.0,68,0.00,,,0.00,118,WeatherCatV1.12B45,2013-04-23 11:56:00,
2013-04-23 08:01:00,51.8,41.6,30.05,SSE,163,4.0,5.0,68,0.00,,,0.00,102,WeatherCatV1.12B45,2013-04-23 12:01:00,
2013-04-23 08:06:00,52.0,41.4,30.04,SE,146,6.0,6.0,67,0.00,,,0.00,100,WeatherCatV1.12B45,2013-04-23 12:06:00,
2013-04-23 08:11:00,52.3,42.1,30.04,SSE,154,2.0,4.0,68,0.00,,,0.00,163,WeatherCatV1.12B45,2013-04-23 12:11:00,
2013-04-23 08:16:00,52.6,42.0,30.06,South,187,4.0,5.0,67,0.00,,,0.00,183,WeatherCatV1.12B45,2013-04-23 12:16:00,
2013-04-23 08:21:00,52.9,42.2,30.07,SSE,163,5.0,5.0,67,0.00,,,0.00,206,WeatherCatV1.12B45,2013-04-23 12:21:00,
2013-04-23 08:26:00,53.5,42.4,30.07,South,176,3.0,8.0,66,0.00,,,0.00,229,WeatherCatV1.12B45,2013-04-23 12:26:00,
2013-04-23 08:31:00,54.2,42.7,30.06,SSE,163,2.0,9.0,65,0.00,,,0.00,239,WeatherCatV1.12B45,2013-04-23 12:31:00,
2013-04-23 08:36:00,54.7,43.2,30.06,SSE,160,1.0,5.0,65,0.00,,,0.00,250,WeatherCatV1.12B45,2013-04-23 12:36:00,
2013-04-23 08:41:00,55.3,42.9,30.06,South,182,3.0,5.0,63,0.00,,,0.00,276,WeatherCatV1.12B45,2013-04-23 12:41:00,
2013-04-23 08:46:00,55.9,43.5,30.06,ESE,122,5.0,7.0,63,0.00,,,0.00,292,WeatherCatV1.12B45,2013-04-23 12:46:00,
2013-04-23 08:51:00,56.5,43.2,30.06,SSE,157,2.0,6.0,61,0.00,,,0.00,315,WeatherCatV1.12B45,2013-04-23 12:51:00,
2013-04-23 08:56:00,57.1,43.8,30.06,SSW,203,3.0,6.0,61,0.00,,,0.00,336,WeatherCatV1.12B45,2013-04-23 12:56:00,
2013-04-23 09:01:00,57.5,44.2,30.06,South,189,5.0,5.0,61,0.00,,,0.00,329,WeatherCatV1.12B45,2013-04-23 13:01:00,
2013-04-23 09:06:00,57.9,44.1,30.07,South,186,4.0,5.0,60,0.00,,,0.00,360,WeatherCatV1.12B45,2013-04-23 13:06:00,
2013-04-23 09:11:00,58.2,43.9,30.07,South,169,1.0,6.0,59,0.00,,,0.00,406,WeatherCatV1.12B45,2013-04-23 13:11:00,
2013-04-23 09:16:00,58.6,44.3,30.07,South,181,3.0,7.0,59,0.00,,,0.00,431,WeatherCatV1.12B45,2013-04-23 13:16:00,
2013-04-23 09:21:00,59.1,44.3,30.07,South,180,1.0,7.0,58,0.00,,,0.00,422,WeatherCatV1.12B45,2013-04-23 13:21:00,
2013-04-23 09:26:00,59.5,45.2,30.07,South,169,1.0,1.0,59,0.00,,,0.00,429,WeatherCatV1.12B45,2013-04-23 13:26:00,
2013-04-23 09:31:00,60.1,44.3,30.07,South,172,2.0,7.0,56,0.00,,,0.00,439,WeatherCatV1.12B45,2013-04-23 13:31:00,
2013-04-23 09:36:00,60.7,44.0,30.07,SW,214,7.0,12.0,54,0.00,,,0.00,454,WeatherCatV1.12B45,2013-04-23 13:36:00,
2013-04-23 09:41:00,61.1,44.3,30.07,SSW,195,5.0,7.0,54,0.00,,,0.00,454,WeatherCatV1.12B45,2013-04-23 13:41:00,
2013-04-23 09:46:00,61.6,44.8,30.07,SSE,148,1.0,4.0,54,0.00,,,0.00,397,WeatherCatV1.12B45,2013-04-23 13:46:00,
2013-04-23 09:51:00,61.7,43.9,30.07,SSW,197,4.0,12.0,52,0.00,,,0.00,380,WeatherCatV1.12B45,2013-04-23 13:51:00,
2013-04-23 09:56:00,61.8,44.5,30.07,SSW,196,5.0,8.0,53,0.00,,,0.00,390,WeatherCatV1.12B45,2013-04-23 13:56:00,
2013-04-23 10:01:00,61.9,45.1,30.07,SSE,165,3.0,9.0,54,0.00,,,0.00,390,WeatherCatV1.12B45,2013-04-23 14:01:00,
2013-04-23 10:06:00,62.0,44.7,30.07,South,182,4.0,10.0,53,0.00,,,0.00,429,WeatherCatV1.12B45,2013-04-23 14:06:00,
2013-04-23 10:11:00,62.3,45.9,30.06,SSE,160,4.0,6.0,55,0.00,,,0.00,461,WeatherCatV1.12B45,2013-04-23 14:11:00,
2013-04-23 10:16:00,62.8,45.9,30.06,SSW,210,2.0,6.0,54,0.00,,,0.00,555,WeatherCatV1.12B45,2013-04-23 14:16:00,
2013-04-23 10:21:00,63.4,46.5,30.06,SSW,197,2.0,7.0,54,0.00,,,0.00,619,WeatherCatV1.12B45,2013-04-23 14:21:00,
2013-04-23 10:26:00,63.8,46.8,30.06,SW,220,4.0,7.0,54,0.00,,,0.00,566,WeatherCatV1.12B45,2013-04-23 14:26:00,
2013-04-23 10:31:00,63.9,46.9,30.06,SW,225,4.0,12.0,54,0.00,,,0.00,571,WeatherCatV1.12B45,2013-04-23 14:31:00,
2013-04-23 10:36:00,63.9,46.9,30.06,SSE,154,4.0,7.0,54,0.00,,,0.00,512,WeatherCatV1.12B45,2013-04-23 14:36:00,
2013-04-23 10:41:00,64.0,47.5,30.06,South,170,7.0,7.0,55,0.00,,,0.00,504,WeatherCatV1.12B45,2013-04-23 14:41:00,
2013-04-23 10:46:00,64.4,48.4,30.06,SE,144,6.0,6.0,56,0.00,,,0.00,519,WeatherCatV1.12B45,2013-04-23 14:46:00,
2013-04-23 10:51:00,64.6,48.1,30.06,SSW,198,7.0,9.0,55,0.00,,,0.00,547,WeatherCatV1.12B45,2013-04-23 14:51:00,
2013-04-23 10:56:00,64.7,48.2,30.06,SSW,192,5.0,10.0,55,0.00,,,0.00,536,WeatherCatV1.12B45,2013-04-23 14:56:00,
2013-04-23 11:01:00,64.8,48.7,30.06,SSW,198,4.0,6.0,56,0.00,,,0.00,591,WeatherCatV1.12B45,2013-04-23 15:01:00,
2013-04-23 11:06:00,65.4,49.3,30.05,SSW,192,5.0,7.0,56,0.00,,,0.00,585,WeatherCatV1.12B45,2013-04-23 15:06:00,
2013-04-23 11:11:00,65.8,49.2,30.05,SW,223,6.0,6.0,55,0.00,,,0.00,693,WeatherCatV1.12B45,2013-04-23 15:11:00,
2013-04-23 11:16:00,66.1,49.5,30.05,SSE,148,6.0,8.0,55,0.00,,,0.00,538,WeatherCatV1.12B45,2013-04-23 15:16:00,
2013-04-23 11:21:00,66.5,49.8,30.05,SSW,195,3.0,5.0,55,0.00,,,0.00,585,WeatherCatV1.12B45,2013-04-23 15:21:00,
2013-04-23 11:26:00,66.9,49.7,30.05,SSW,204,5.0,9.0,54,0.00,,,0.00,621,WeatherCatV1.12B45,2013-04-23 15:26:00,
2013-04-23 11:31:00,67.1,49.4,30.05,WSW,249,5.0,11.0,53,0.00,,,0.00,540,WeatherCatV1.12B45,2013-04-23 15:31:00,
2013-04-23 11:36:00,67.0,50.3,30.05,South,175,4.0,6.0,55,0.00,,,0.00,573,WeatherCatV1.12B45,2013-04-23 15:36:00,
2013-04-23 11:41:00,67.1,49.9,30.05,SW,233,3.0,7.0,54,0.00,,,0.00,598,WeatherCatV1.12B45,2013-04-23 15:41:00,
2013-04-23 11:46:00,67.1,49.9,30.05,WSW,254,3.0,5.0,54,0.00,,,0.00,543,WeatherCatV1.12B45,2013-04-23 15:46:00,
2013-04-23 11:52:00,67.4,50.7,30.04,SSW,203,3.0,4.0,55,0.00,,,0.00,552,WeatherCatV1.12B45,2013-04-23 15:52:00,
2013-04-23 11:57:00,67.7,50.9,30.04,South,171,6.0,10.0,55,0.00,,,0.00,547,WeatherCatV1.12B45,2013-04-23 15:57:00,
2013-04-23 12:02:00,67.9,50.6,30.04,SW,215,1.0,6.0,54,0.00,,,0.00,605,WeatherCatV1.12B45,2013-04-23 16:02:00,
2013-04-23 12:07:00,68.3,50.5,30.05,WSW,242,4.0,6.0,53,0.00,,,0.00,652,WeatherCatV1.12B45,2013-04-23 16:07:00,
2013-04-23 12:12:00,68.5,51.2,30.04,South,181,3.0,10.0,54,0.00,,,0.00,680,WeatherCatV1.12B45,2013-04-23 16:12:00,
2013-04-23 12:17:00,68.8,51.0,30.04,South,189,4.0,7.0,53,0.00,,,0.00,708,WeatherCatV1.12B45,2013-04-23 16:17:00,
2013-04-23 12:22:00,69.1,52.2,30.04,SSE,164,7.0,9.0,55,0.00,,,0.00,638,WeatherCatV1.12B45,2013-04-23 16:22:00,
2013-04-23 12:27:00,69.1,51.2,30.04,SSE,157,9.0,9.0,53,0.00,,,0.00,617,WeatherCatV1.12B45,2013-04-23 16:27:00,
2013-04-23 12:32:00,68.9,51.6,30.04,South,179,12.0,12.0,54,0.00,,,0.00,584,WeatherCatV1.12B45,2013-04-23 16:32:00,
2013-04-23 12:37:00,69.2,51.8,30.04,South,187,5.0,7.0,54,0.00,,,0.00,561,WeatherCatV1.12B45,2013-04-23 16:37:00,
2013-04-23 12:42:00,69.3,51.9,30.04,SE,140,1.0,10.0,54,0.00,,,0.00,550,WeatherCatV1.12B45,2013-04-23 16:42:00,
2013-04-23 12:47:00,69.4,51.5,30.04,South,183,7.0,10.0,53,0.00,,,0.00,568,WeatherCatV1.12B45,2013-04-23 16:47:00,
2013-04-23 12:52:00,69.3,51.9,30.03,South,183,8.0,8.0,54,0.00,,,0.00,564,WeatherCatV1.12B45,2013-04-23 16:52:00,
2013-04-23 12:57:00,69.1,51.2,30.03,South,191,3.0,9.0,53,0.00,,,0.00,504,WeatherCatV1.12B45,2013-04-23 16:57:00,
2013-04-23 13:02:00,69.2,52.3,30.03,SW,229,3.0,8.0,55,0.00,,,0.00,445,WeatherCatV1.12B45,2013-04-23 17:02:00,
2013-04-23 13:07:00,69.4,52.5,30.03,SSW,211,5.0,6.0,55,0.00,,,0.00,476,WeatherCatV1.12B45,2013-04-23 17:07:00,
2013-04-23 13:12:00,69.4,52.0,30.02,South,177,4.0,10.0,54,0.00,,,0.00,591,WeatherCatV1.12B45,2013-04-23 17:12:00,
2013-04-23 13:17:00,69.5,52.1,30.02,SSW,194,6.0,14.0,54,0.00,,,0.00,584,WeatherCatV1.12B45,2013-04-23 17:17:00,
2013-04-23 13:22:00,69.5,51.6,30.02,SE,135,9.0,14.0,53,0.00,,,0.00,577,WeatherCatV1.12B45,2013-04-23 17:22:00,
2013-04-23 13:27:00,69.3,51.9,30.02,South,179,7.0,10.0,54,0.00,,,0.00,557,WeatherCatV1.12B45,2013-04-23 17:27:00,
2013-04-23 13:32:00,69.3,52.9,30.01,WSW,241,2.0,5.0,56,0.00,,,0.00,628,WeatherCatV1.12B45,2013-04-23 17:32:00,
2013-04-23 13:37:00,69.7,52.3,30.01,South,178,6.0,13.0,54,0.00,,,0.00,638,WeatherCatV1.12B45,2013-04-23 17:37:00,
2013-04-23 13:42:00,69.5,52.6,30.01,South,190,7.0,10.0,55,0.00,,,0.00,661,WeatherCatV1.12B45,2013-04-23 17:42:00,
2013-04-23 13:47:00,69.5,52.6,30.00,SSE,159,7.0,9.0,55,0.00,,,0.00,652,WeatherCatV1.12B45,2013-04-23 17:47:00,
2013-04-23 13:52:00,69.6,52.7,30.00,South,190,10.0,12.0,55,0.00,,,0.00,654,WeatherCatV1.12B45,2013-04-23 17:52:00,
2013-04-23 13:57:00,69.6,53.2,30.00,SSE,154,6.0,10.0,56,0.00,,,0.00,650,WeatherCatV1.12B45,2013-04-23 17:57:00,
2013-04-23 14:02:00,69.7,53.3,29.99,SSW,196,11.0,18.0,56,0.00,,,0.00,650,WeatherCatV1.12B45,2013-04-23 18:02:00,
2013-04-23 14:07:00,69.4,52.5,30.00,SSE,163,13.0,16.0,55,0.00,,,0.00,568,WeatherCatV1.12B45,2013-04-23 18:07:00,
2013-04-23 14:12:00,69.1,53.2,29.99,South,191,8.0,10.0,57,0.00,,,0.00,499,WeatherCatV1.12B45,2013-04-23 18:12:00,
2013-04-23 14:17:00,69.2,53.3,29.99,SSW,195,6.0,13.0,57,0.00,,,0.00,417,WeatherCatV1.12B45,2013-04-23 18:17:00,
2013-04-23 14:22:00,68.9,53.0,29.99,SSW,194,2.0,11.0,57,0.00,,,0.00,422,WeatherCatV1.12B45,2013-04-23 18:22:00,
2013-04-23 14:27:00,68.9,53.0,29.99,SSE,161,2.0,7.0,57,0.00,,,0.00,387,WeatherCatV1.12B45,2013-04-23 18:27:00,
2013-04-23 14:32:00,69.0,53.1,30.00,SSW,194,11.0,16.0,57,0.00,,,0.00,243,WeatherCatV1.12B45,2013-04-23 18:32:00,
2013-04-23 14:37:00,68.7,52.8,29.99,SSW,206,9.0,11.0,57,0.00,,,0.00,264,WeatherCatV1.12B45,2013-04-23 18:37:00,
2013-04-23 14:42:00,68.4,53.0,29.99,South,170,5.0,12.0,58,0.00,,,0.00,248,WeatherCatV1.12B45,2013-04-23 18:42:00,
2013-04-23 14:47:00,68.3,52.9,29.99,SW,217,8.0,12.0,58,0.00,,,0.00,193,WeatherCatV1.12B45,2013-04-23 18:47:00,
2013-04-23 14:52:00,68.2,52.8,29.99,South,187,9.0,13.0,58,0.00,,,0.00,218,WeatherCatV1.12B45,2013-04-23 18:52:00,
2013-04-23 14:57:00,68.1,52.8,29.99,South,184,9.0,15.0,58,0.00,,,0.00,255,WeatherCatV1.12B45,2013-04-23 18:57:00,
2013-04-23 15:02:00,68.2,52.8,29.99,SW,215,4.0,9.0,58,0.00,,,0.00,309,WeatherCatV1.12B45,2013-04-23 19:02:00,
2013-04-23 15:07:00,68.3,52.9,29.99,SSW,193,6.0,10.0,58,0.00,,,0.00,380,WeatherCatV1.12B45,2013-04-23 19:07:00,
2013-04-23 15:12:00,68.4,53.0,29.99,South,176,7.0,13.0,58,0.00,,,0.00,325,WeatherCatV1.12B45,2013-04-23 19:12:00,
2013-04-23 15:17:00,68.5,52.7,29.99,SW,220,5.0,11.0,57,0.00,,,0.00,229,WeatherCatV1.12B45,2013-04-23 19:17:00,
2013-04-23 15:22:00,68.5,52.7,29.99,SW,227,7.0,7.0,57,0.00,,,0.00,241,WeatherCatV1.12B45,2013-04-23 19:22:00,
2013-04-23 15:27:00,68.4,53.0,29.99,WSW,237,5.0,8.0,58,0.00,,,0.00,278,WeatherCatV1.12B45,2013-04-23 19:27:00,
2013-04-23 15:32:00,68.4,53.0,29.98,South,183,5.0,11.0,58,0.00,,,0.00,281,WeatherCatV1.12B45,2013-04-23 19:32:00,
2013-04-23 15:37:00,68.5,53.1,29.98,South,181,6.0,6.0,58,0.00,,,0.00,227,WeatherCatV1.12B45,2013-04-23 19:37:00,
2013-04-23 15:42:00,68.4,52.6,29.97,SSW,208,1.0,11.0,57,0.00,,,0.00,234,WeatherCatV1.12B45,2013-04-23 19:42:00,
2013-04-23 15:47:00,68.4,52.6,29.97,SSE,167,12.0,15.0,57,0.00,,,0.00,299,WeatherCatV1.12B45,2013-04-23 19:47:00,
2013-04-23 15:52:00,68.3,52.5,29.97,SW,220,2.0,7.0,57,0.00,,,0.00,276,WeatherCatV1.12B45,2013-04-23 19:52:00,
2013-04-23 15:57:00,68.3,52.0,29.97,SW,217,5.0,14.0,56,0.00,,,0.00,246,WeatherCatV1.12B45,2013-04-23 19:57:00,
2013-04-23 16:02:00,68.2,51.9,29.97,SW,231,11.0,15.0,56,0.00,,,0.00,267,WeatherCatV1.12B45,2013-04-23 20:02:00,
2013-04-23 16:07:00,68.2,52.4,29.97,South,171,4.0,5.0,57,0.00,,,0.00,360,WeatherCatV1.12B45,2013-04-23 20:07:00,
2013-04-23 16:12:00,68.4,52.1,29.96,South,187,8.0,14.0,56,0.00,,,0.00,374,WeatherCatV1.12B45,2013-04-23 20:12:00,
2013-04-23 16:17:00,68.5,52.7,29.96,South,186,5.0,14.0,57,0.00,,,0.00,334,WeatherCatV1.12B45,2013-04-23 20:17:00,
2013-04-23 16:22:00,68.6,52.7,29.96,South,171,4.0,7.0,57,0.00,,,0.00,350,WeatherCatV1.12B45,2013-04-23 20:22:00,
2013-04-23 16:27:00,68.8,52.9,29.95,SSW,198,9.0,9.0,57,0.00,,,0.00,443,WeatherCatV1.12B45,2013-04-23 20:27:00,
2013-04-23 16:32:00,68.9,52.1,29.94,South,180,6.0,13.0,55,0.00,,,0.00,362,WeatherCatV1.12B45,2013-04-23 20:32:00,
2013-04-23 16:37:00,68.7,52.4,29.94,SSW,199,8.0,14.0,56,0.00,,,0.00,302,WeatherCatV1.12B45,2013-04-23 20:37:00,
2013-04-23 16:42:00,68.4,51.6,29.94,South,181,7.0,16.0,55,0.00,,,0.00,248,WeatherCatV1.12B45,2013-04-23 20:42:00,
2013-04-23 16:47:00,68.2,51.4,29.93,South,170,6.0,7.0,55,0.00,,,0.00,197,WeatherCatV1.12B45,2013-04-23 20:47:00,
2013-04-23 16:53:00,68.2,51.4,29.93,South,185,15.0,15.0,55,0.00,,,0.00,162,WeatherCatV1.12B45,2013-04-23 20:53:00,
2013-04-23 16:58:00,68.0,51.2,29.92,South,177,6.0,9.0,55,0.00,,,0.00,141,WeatherCatV1.12B45,2013-04-23 20:58:00,
2013-04-23 17:03:00,67.8,51.0,29.92,South,189,9.0,9.0,55,0.00,,,0.00,104,WeatherCatV1.12B45,2013-04-23 21:03:00,
2013-04-23 17:08:00,67.6,50.8,29.92,SSE,150,5.0,10.0,55,0.00,,,0.00,116,WeatherCatV1.12B45,2013-04-23 21:08:00,
2013-04-23 17:13:00,67.5,51.2,29.92,South,175,12.0,18.0,56,0.00,,,0.00,178,WeatherCatV1.12B45,2013-04-23 21:13:00,
2013-04-23 17:18:00,67.5,51.7,29.92,South,173,6.0,16.0,57,0.00,,,0.00,281,WeatherCatV1.12B45,2013-04-23 21:18:00,
2013-04-23 17:23:00,67.6,51.3,29.92,SE,144,7.0,15.0,56,0.00,,,0.00,501,WeatherCatV1.12B45,2013-04-23 21:23:00,
2013-04-23 17:28:00,67.8,51.5,29.92,SSW,196,8.0,12.0,56,0.00,,,0.00,199,WeatherCatV1.12B45,2013-04-23 21:28:00,
2013-04-23 17:33:00,67.7,51.9,29.92,South,183,9.0,10.0,57,0.00,,,0.00,93,WeatherCatV1.12B45,2013-04-23 21:33:00,
2013-04-23 17:38:00,67.5,51.7,29.91,SSW,194,11.0,14.0,57,0.00,,,0.00,65,WeatherCatV1.12B45,2013-04-23 21:38:00,
2013-04-23 17:43:00,67.2,51.4,29.91,SSW,211,7.0,9.0,57,0.00,,,0.00,49,WeatherCatV1.12B45,2013-04-23 21:43:00,
2013-04-23 17:48:00,67.1,52.3,29.91,SSW,198,1.0,4.0,59,0.00,,,0.00,63,WeatherCatV1.12B45,2013-04-23 21:48:00,
2013-04-23 17:53:00,67.0,52.2,29.91,SE,145,4.0,9.0,59,0.00,,,0.00,70,WeatherCatV1.12B45,2013-04-23 21:53:00,
2013-04-23 17:58:00,67.0,52.2,29.91,South,179,6.0,10.0,59,0.00,,,0.00,51,WeatherCatV1.12B45,2013-04-23 21:58:00,
2013-04-23 18:03:00,66.9,52.1,29.91,South,181,1.0,4.0,59,0.00,,,0.00,62,WeatherCatV1.12B45,2013-04-23 22:03:00,
2013-04-23 18:08:00,66.9,52.1,29.90,South,179,5.0,9.0,59,0.00,,,0.00,90,WeatherCatV1.12B45,2013-04-23 22:08:00,
2013-04-23 18:13:00,66.9,51.6,29.90,SSE,148,6.0,11.0,58,0.00,,,0.00,81,WeatherCatV1.12B45,2013-04-23 22:13:00,
2013-04-23 18:18:00,66.8,51.5,29.90,South,184,10.0,10.0,58,0.00,,,0.00,54,WeatherCatV1.12B45,2013-04-23 22:18:00,
2013-04-23 18:23:00,66.8,51.5,29.89,SSE,159,4.0,7.0,58,0.00,,,0.00,97,WeatherCatV1.12B45,2013-04-23 22:23:00,
2013-04-23 18:28:00,66.8,51.5,29.89,SE,139,4.0,8.0,58,0.00,,,0.00,195,WeatherCatV1.12B45,2013-04-23 22:28:00,
2013-04-23 18:33:00,67.0,52.2,29.89,SSW,201,5.0,7.0,59,0.00,,,0.00,179,WeatherCatV1.12B45,2013-04-23 22:33:00,
2013-04-23 18:38:00,67.1,51.8,29.89,South,169,7.0,10.0,58,0.00,,,0.00,107,WeatherCatV1.12B45,2013-04-23 22:38:00,
2013-04-23 18:43:00,67.1,51.8,29.89,SE,146,2.0,6.0,58,0.00,,,0.00,97,WeatherCatV1.12B45,2013-04-23 22:43:00,
2013-04-23 18:48:00,67.0,51.7,29.88,ESE,123,4.0,9.0,58,0.00,,,0.00,72,WeatherCatV1.12B45,2013-04-23 22:48:00,
2013-04-23 18:53:00,67.0,51.7,29.88,South,181,0.0,3.0,58,0.00,,,0.00,60,WeatherCatV1.12B45,2013-04-23 22:53:00,
2013-04-23 18:58:00,66.9,51.6,29.89,SSE,166,5.0,9.0,58,0.00,,,0.00,53,WeatherCatV1.12B45,2013-04-23 22:58:00,
2013-04-23 19:03:00,66.8,51.5,29.89,ESE,106,7.0,9.0,58,0.00,,,0.00,51,WeatherCatV1.12B45,2013-04-23 23:03:00,
2013-04-23 19:08:00,66.7,51.4,29.89,South,180,9.0,10.0,58,0.00,,,0.00,51,WeatherCatV1.12B45,2013-04-23 23:08:00,
2013-04-23 19:13:00,66.6,51.4,29.89,South,176,3.0,6.0,58,0.00,,,0.00,33,WeatherCatV1.12B45,2013-04-23 23:13:00,
2013-04-23 19:18:00,66.5,51.3,29.89,South,176,5.0,7.0,58,0.00,,,0.00,25,WeatherCatV1.12B45,2013-04-23 23:18:00,
2013-04-23 19:23:00,66.3,51.5,29.89,SSW,197,6.0,13.0,59,0.00,,,0.00,28,WeatherCatV1.12B45,2013-04-23 23:23:00,
2013-04-23 19:28:00,66.3,51.5,29.88,SSE,161,5.0,9.0,59,0.00,,,0.00,21,WeatherCatV1.12B45,2013-04-23 23:28:00,
2013-04-23 19:33:00,66.1,51.3,29.88,South,176,4.0,8.0,59,0.00,,,0.00,21,WeatherCatV1.12B45,2013-04-23 23:33:00,
2013-04-23 19:38:00,66.1,51.8,29.86,SSE,154,2.0,7.0,60,0.00,,,0.00,95,WeatherCatV1.12B45,2013-04-23 23:38:00,
2013-04-23 19:43:00,65.9,51.6,29.86,SSE,167,3.0,13.0,60,0.00,,,0.00,104,WeatherCatV1.12B45,2013-04-23 23:43:00,
2013-04-23 19:48:00,65.9,52.1,29.85,South,187,3.0,10.0,61,0.00,,,0.00,56,WeatherCatV1.12B45,2013-04-23 23:48:00,
2013-04-23 19:53:00,65.7,51.9,29.85,South,171,5.0,12.0,61,0.00,,,0.00,32,WeatherCatV1.12B45,2013-04-23 23:53:00,
2013-04-23 19:58:00,65.6,51.8,29.86,South,187,4.0,11.0,61,0.00,,,0.00,16,WeatherCatV1.12B45,2013-04-23 23:58:00,
2013-04-23 20:03:00,65.5,51.7,29.87,South,174,6.0,11.0,61,0.00,,,0.00,7,WeatherCatV1.12B45,2013-04-24 00:03:00,
2013-04-23 20:08:00,65.4,52.0,29.88,SSE,157,4.0,4.0,62,0.00,,,0.00,0,WeatherCatV1.12B45,2013-04-24 00:08:00,
2013-04-23 20:13:00,65.4,52.0,29.87,South,183,3.0,8.0,62,0.00,,,0.00,0,WeatherCatV1.12B45,2013-04-24 00:13:00,
2013-04-23 20:18:00,65.3,51.9,29.88,SSW,212,3.0,4.0,62,0.00,,,0.00,0,WeatherCatV1.12B45,2013-04-24 00:18:00,
2013-04-23 20:23:00,65.3,51.9,29.88,SSW,198,4.0,6.0,62,0.00,,,0.00,0,WeatherCatV1.12B45,2013-04-24 00:23:00,
2013-04-23 20:28:00,65.2,51.8,29.89,South,185,1.0,6.0,62,0.00,,,0.00,0,WeatherCatV1.12B45,2013-04-24 00:28:00,
2013-04-23 20:33:00,65.2,52.3,29.88,SSE,148,1.0,8.0,63,0.00,,,0.00,0,WeatherCatV1.12B45,2013-04-24 00:33:00,
2013-04-23 20:38:00,65.2,52.3,29.88,SSW,194,3.0,4.0,63,0.00,,,0.00,0,WeatherCatV1.12B45,2013-04-24 00:38:00,
2013-04-23 20:43:00,65.0,52.1,29.87,South,180,5.0,7.0,63,0.00,,,0.00,0,WeatherCatV1.12B45,2013-04-24 00:43:00,
2013-04-23 20:48:00,64.9,52.4,29.87,SSE,167,5.0,5.0,64,0.00,,,0.00,0,WeatherCatV1.12B45,2013-04-24 00:48:00,
2013-04-23 20:53:00,64.9,52.0,29.87,South,188,1.0,9.0,63,0.00,,,0.00,0,WeatherCatV1.12B45,2013-04-24 00:53:00,
2013-04-23 20:58:00,64.8,52.3,29.88,South,174,3.0,7.0,64,0.00,,,0.00,0,WeatherCatV1.12B45,2013-04-24 00:58:00,
2013-04-23 21:03:00,64.7,52.2,29.87,SSE,156,1.0,7.0,64,0.00,,,0.00,0,WeatherCatV1.12B45,2013-04-24 01:03:00,
2013-04-23 21:08:00,64.7,52.2,29.87,SSE,163,5.0,7.0,64,0.00,,,0.00,0,WeatherCatV1.12B45,2013-04-24 01:08:00,
2013-04-23 21:13:00,64.6,52.6,29.87,SSE,154,5.0,8.0,65,0.00,,,0.00,0,WeatherCatV1.12B45,2013-04-24 01:13:00,
2013-04-23 21:18:00,64.5,52.5,29.87,SSE,167,3.0,9.0,65,0.00,,,0.00,0,WeatherCatV1.12B45,2013-04-24 01:18:00,
2013-04-23 21:23:00,64.4,52.4,29.87,South,177,3.0,6.0,65,0.00,,,0.00,0,WeatherCatV1.12B45,2013-04-24 01:23:00,
2013-04-23 21:28:00,64.4,52.4,29.86,South,182,6.0,9.0,65,0.00,,,0.00,0,WeatherCatV1.12B45,2013-04-24 01:28:00,
2013-04-23 21:33:00,64.3,52.3,29.86,SE,139,5.0,8.0,65,0.00,,,0.00,0,WeatherCatV1.12B45,2013-04-24 01:33:00,
2013-04-23 21:38:00,64.3,52.3,29.86,SE,133,2.0,10.0,65,0.00,,,0.00,0,WeatherCatV1.12B45,2013-04-24 01:38:00,
2013-04-23 21:43:00,64.2,52.2,29.86,South,181,3.0,8.0,65,0.00,,,0.00,0,WeatherCatV1.12B45,2013-04-24 01:43:00,
2013-04-23 21:48:00,64.1,52.1,29.86,South,183,3.0,7.0,65,0.00,,,0.00,0,WeatherCatV1.12B45,2013-04-24 01:48:00,
2013-04-23 21:53:00,64.0,52.0,29.86,South,178,3.0,7.0,65,0.00,,,0.00,0,WeatherCatV1.12B45,2013-04-24 01:53:00,
2013-04-23 21:58:00,64.0,52.0,29.86,SSE,154,6.0,7.0,65,0.00,,,0.00,0,WeatherCatV1.12B45,2013-04-24 01:58:00,
2013-04-23 22:03:00,64.0,52.0,29.86,SSW,208,3.0,8.0,65,0.00,,,0.00,0,WeatherCatV1.12B45,2013-04-24 02:03:00,
2013-04-23 22:08:00,64.0,52.0,29.86,SE,135,5.0,8.0,65,0.00,,,0.00,0,WeatherCatV1.12B45,2013-04-24 02:08:00,
2013-04-23 22:13:00,64.0,52.0,29.86,South,181,9.0,11.0,65,0.00,,,0.00,0,WeatherCatV1.12B45,2013-04-24 02:13:00,
2013-04-23 22:18:00,64.0,52.0,29.86,SSE,168,4.0,10.0,65,0.00,,,0.00,0,WeatherCatV1.12B45,2013-04-24 02:18:00,
2013-04-23 22:23:00,64.0,52.0,29.86,SSE,165,4.0,6.0,65,0.00,,,0.00,0,WeatherCatV1.12B45,2013-04-24 02:23:00,
2013-04-23 22:28:00,64.0,51.6,29.86,South,181,5.0,8.0,64,0.00,,,0.00,0,WeatherCatV1.12B45,2013-04-24 02:28:00,
2013-04-23 22:33:00,64.0,51.6,29.85,South,188,3.0,8.0,64,0.00,,,0.00,0,WeatherCatV1.12B45,2013-04-24 02:33:00,
2013-04-23 22:38:00,64.0,51.6,29.85,SE,130,5.0,12.0,64,0.00,,,0.00,0,WeatherCatV1.12B45,2013-04-24 02:38:00,
2013-04-23 22:43:00,64.0,51.6,29.85,South,181,6.0,8.0,64,0.00,,,0.00,0,WeatherCatV1.12B45,2013-04-24 02:43:00,
2013-04-23 22:48:00,64.0,51.1,29.85,SE,146,12.0,14.0,63,0.00,,,0.00,0,WeatherCatV1.12B45,2013-04-24 02:48:00,
2013-04-23 22:53:00,64.1,51.2,29.85,SSW,194,3.0,11.0,63,0.00,,,0.00,0,WeatherCatV1.12B45,2013-04-24 02:53:00,
2013-04-23 22:58:00,64.0,51.1,29.85,SSW,203,6.0,11.0,63,0.00,,,0.00,0,WeatherCatV1.12B45,2013-04-24 02:58:00,
2013-04-23 23:03:00,64.0,50.7,29.84,SSW,199,8.0,11.0,62,0.00,,,0.00,0,WeatherCatV1.12B45,2013-04-24 03:03:00,
2013-04-23 23:08:00,64.0,50.7,29.84,South,180,6.0,11.0,62,0.00,,,0.00,0,WeatherCatV1.12B45,2013-04-24 03:08:00,
2013-04-23 23:13:00,64.0,50.7,29.84,South,188,4.0,12.0,62,0.00,,,0.00,0,WeatherCatV1.12B45,2013-04-24 03:13:00,
2013-04-23 23:18:00,64.0,50.7,29.84,SSW,205,3.0,13.0,62,0.00,,,0.00,0,WeatherCatV1.12B45,2013-04-24 03:18:00,
2013-04-23 23:23:00,63.9,50.6,29.84,South,179,8.0,13.0,62,0.00,,,0.00,0,WeatherCatV1.12B45,2013-04-24 03:23:00,
2013-04-23 23:28:00,63.9,50.6,29.83,South,188,5.0,8.0,62,0.00,,,0.00,0,WeatherCatV1.12B45,2013-04-24 03:28:00,
2013-04-23 23:33:00,63.9,50.2,29.84,SSE,164,5.0,16.0,61,0.00,,,0.00,0,WeatherCatV1.12B45,2013-04-24 03:33:00,
2013-04-23 23:38:00,63.9,50.2,29.83,South,182,11.0,16.0,61,0.00,,,0.00,0,WeatherCatV1.12B45,2013-04-24 03:38:00,
2013-04-23 23:43:00,64.0,50.3,29.83,SSE,168,4.0,12.0,61,0.00,,,0.00,0,WeatherCatV1.12B45,2013-04-24 03:43:00,
2013-04-23 23:48:00,64.0,50.3,29.83,SSE,164,4.0,8.0,61,0.00,,,0.00,0,WeatherCatV1.12B45,2013-04-24 03:48:00,
2013-04-23 23:53:00,64.0,49.8,29.83,South,181,4.0,10.0,60,0.00,,,0.00,0,WeatherCatV1.12B45,2013-04-24 03:53:00,
2013-04-23 23:58:00,64.1,49.9,29.83,SW,223,9.0,13.0,60,0.00,,,0.00,0,WeatherCatV1.12B45,2013-04-24 03:58:00,